Time,TemperatureF,DewpointF,PressureIn,WindDirection,WindDirectionDegrees,WindSpeedMPH,WindSpeedGustMPH,Humidity,HourlyPrecipIn,Conditions,Clouds,dailyrainin,SolarRadiationWatts/m^2,SoftwareType,DateUTC
2013-02-11 00:01:00,24.0,20.0,-100.00,NNW,337,0.0,3.0,85,0.00,,,0.00,0.000000,,2013-02-11 08:01:00,
2013-02-11 00:11:00,24.0,20.0,-100.00,NNW,337,0.0,3.0,85,0.00,,,0.00,0.000000,,2013-02-11 08:11:00,
2013-02-11 00:21:00,24.0,20.0,-100.00,NNW,337,0.0,3.0,85,0.00,,,0.00,0.000000,,2013-02-11 08:21:00,
2013-02-11 00:31:00,24.0,20.0,-100.00,NNW,337,0.0,3.0,85,0.00,,,0.00,0.000000,,2013-02-11 08:31:00,
2013-02-11 00:52:00,25.0,21.0,-100.00,NNW,337,1.0,3.0,83,0.00,,,0.00,0.000000,,2013-02-11 08:52:00,
2013-02-11 01:01:00,25.0,21.0,-100.00,NNW,337,1.0,3.0,83,0.00,,,0.00,0.000000,,2013-02-11 09:01:00,
2013-02-11 01:12:00,25.0,21.0,-100.00,NNW,337,1.0,3.0,83,0.00,,,0.00,0.000000,,2013-02-11 09:12:00,
2013-02-11 01:21:00,25.0,21.0,-100.00,NNW,337,1.0,3.0,83,0.00,,,0.00,0.000000,,2013-02-11 09:21:00,
2013-02-11 01:31:00,25.0,21.0,-100.00,NNW,337,1.0,3.0,83,0.00,,,0.00,0.000000,,2013-02-11 09:31:00,
2013-02-11 01:52:00,25.0,21.0,-100.00,NNW,336,1.0,3.0,85,0.00,,,0.00,0.000000,,2013-02-11 09:52:00,
2013-02-11 02:01:00,25.0,21.0,-100.00,NNW,336,1.0,3.0,85,0.00,,,0.00,0.000000,,2013-02-11 10:01:00,
2013-02-11 02:11:00,25.0,21.0,-100.00,NNW,336,1.0,3.0,85,0.00,,,0.00,0.000000,,2013-02-11 10:11:00,
2013-02-11 02:21:00,25.0,21.0,-100.00,NNW,336,1.0,3.0,85,0.00,,,0.00,0.000000,,2013-02-11 10:21:00,
2013-02-11 02:31:00,25.0,21.0,-100.00,NNW,336,1.0,3.0,85,0.00,,,0.00,0.000000,,2013-02-11 10:31:00,
2013-02-11 02:52:00,24.0,20.0,-100.00,NNW,336,0.0,3.0,86,0.00,,,0.00,0.000000,,2013-02-11 10:52:00,
2013-02-11 03:01:00,24.0,20.0,-100.00,NNW,336,0.0,3.0,86,0.00,,,0.00,0.000000,,2013-02-11 11:01:00,
2013-02-11 03:11:00,24.0,20.0,-100.00,NNW,336,0.0,3.0,86,0.00,,,0.00,0.000000,,2013-02-11 11:11:00,
2013-02-11 03:22:00,24.0,20.0,-100.00,NNW,336,0.0,3.0,86,0.00,,,0.00,0.000000,,2013-02-11 11:22:00,
2013-02-11 03:32:00,24.0,20.0,-100.00,NNW,336,0.0,3.0,86,0.00,,,0.00,0.000000,,2013-02-11 11:32:00,
2013-02-11 03:52:00,25.0,18.0,-100.00,NNW,336,1.0,3.0,75,0.00,,,0.00,0.000000,,2013-02-11 11:52:00,
2013-02-11 04:03:00,25.0,18.0,-100.00,NNW,336,1.0,3.0,75,0.00,,,0.00,0.000000,,2013-02-11 12:03:00,
2013-02-11 04:12:00,25.0,18.0,-100.00,NNW,336,1.0,3.0,75,0.00,,,0.00,0.000000,,2013-02-11 12:12:00,
2013-02-11 04:22:00,25.0,18.0,-100.00,NNW,336,1.0,3.0,75,0.00,,,0.00,0.000000,,2013-02-11 12:22:00,
2013-02-11 04:31:00,25.0,18.0,-100.00,NNW,336,1.0,3.0,75,0.00,,,0.00,0.000000,,2013-02-11 12:31:00,
2013-02-11 04:52:00,30.0,15.0,-100.00,NNW,336,2.0,4.0,54,0.00,,,-99.99,0.000000,,2013-02-11 12:52:00,
2013-02-11 05:01:00,30.0,15.0,-100.00,NNW,336,2.0,4.0,54,0.00,,,-99.99,0.000000,,2013-02-11 13:01:00,
2013-02-11 05:11:00,30.0,15.0,-100.00,NNW,336,2.0,4.0,54,0.00,,,-99.99,0.000000,,2013-02-11 13:11:00,
2013-02-11 05:21:00,30.0,15.0,-100.00,NNW,336,2.0,4.0,54,0.00,,,-99.99,0.000000,,2013-02-11 13:21:00,
2013-02-11 05:32:00,30.0,15.0,-100.00,NNW,336,2.0,4.0,54,0.00,,,-99.99,0.000000,,2013-02-11 13:32:00,
2013-02-11 05:52:00,27.0,15.0,-100.00,NNW,336,1.0,3.0,61,0.00,,,-99.99,0.000000,,2013-02-11 13:52:00,
2013-02-11 06:01:00,27.0,15.0,-100.00,NNW,336,1.0,3.0,61,0.00,,,-99.99,0.000000,,2013-02-11 14:01:00,
2013-02-11 06:11:00,27.0,15.0,-100.00,NNW,336,1.0,3.0,61,0.00,,,-99.99,0.000000,,2013-02-11 14:11:00,
2013-02-11 06:21:00,27.0,15.0,-100.00,NNW,336,1.0,3.0,61,0.00,,,-99.99,0.000000,,2013-02-11 14:21:00,
2013-02-11 06:32:00,27.0,15.0,-100.00,NNW,336,1.0,3.0,61,0.00,,,-99.99,0.000000,,2013-02-11 14:32:00,
2013-02-11 06:53:00,25.0,18.0,-100.00,NNW,337,1.0,5.0,74,0.00,,,0.00,0.000000,,2013-02-11 14:53:00,
2013-02-11 07:01:00,25.0,18.0,-100.00,NNW,337,1.0,5.0,74,0.00,,,0.00,0.000000,,2013-02-11 15:01:00,
2013-02-11 07:11:00,25.0,18.0,-100.00,NNW,337,1.0,5.0,74,0.00,,,0.00,0.000000,,2013-02-11 15:11:00,
2013-02-11 07:22:00,25.0,18.0,-100.00,NNW,337,1.0,5.0,74,0.00,,,0.00,0.000000,,2013-02-11 15:22:00,
2013-02-11 07:31:00,25.0,18.0,-100.00,NNW,337,1.0,5.0,74,0.00,,,0.00,0.000000,,2013-02-11 15:31:00,
2013-02-11 07:52:00,26.0,19.0,-100.00,NNW,337,1.0,3.0,74,0.00,,,0.00,4.000000,,2013-02-11 15:52:00,
2013-02-11 08:01:00,26.0,19.0,-100.00,NNW,337,1.0,3.0,74,0.00,,,0.00,4.000000,,2013-02-11 16:01:00,
2013-02-11 08:11:00,26.0,19.0,-100.00,NNW,337,1.0,3.0,74,0.00,,,0.00,4.000000,,2013-02-11 16:11:00,
2013-02-11 08:21:00,26.0,19.0,-100.00,NNW,337,1.0,3.0,74,0.00,,,0.00,4.000000,,2013-02-11 16:21:00,
2013-02-11 08:31:00,26.0,19.0,-100.00,NNW,337,1.0,3.0,74,0.00,,,0.00,4.000000,,2013-02-11 16:31:00,
2013-02-11 08:52:00,26.0,19.0,-100.00,NNW,336,0.0,4.0,73,0.00,,,0.00,25.000000,,2013-02-11 16:52:00,
2013-02-11 09:01:00,26.0,19.0,-100.00,NNW,336,0.0,4.0,73,0.00,,,0.00,25.000000,,2013-02-11 17:01:00,
2013-02-11 09:11:00,26.0,19.0,-100.00,NNW,336,0.0,4.0,73,0.00,,,0.00,25.000000,,2013-02-11 17:11:00,
2013-02-11 09:21:00,26.0,19.0,-100.00,NNW,336,0.0,4.0,73,0.00,,,0.00,25.000000,,2013-02-11 17:21:00,
2013-02-11 09:31:00,26.0,19.0,-100.00,NNW,336,0.0,4.0,73,0.00,,,0.00,25.000000,,2013-02-11 17:31:00,
2013-02-11 09:53:00,29.0,23.0,-100.00,NNW,337,2.0,6.0,77,0.00,,,0.00,41.000000,,2013-02-11 17:53:00,
2013-02-11 10:01:00,29.0,23.0,-100.00,NNW,337,2.0,6.0,77,0.00,,,0.00,41.000000,,2013-02-11 18:01:00,
2013-02-11 10:11:00,29.0,23.0,-100.00,NNW,337,2.0,6.0,77,0.00,,,0.00,41.000000,,2013-02-11 18:11:00,
2013-02-11 10:21:00,29.0,23.0,-100.00,NNW,337,2.0,6.0,77,0.00,,,0.00,41.000000,,2013-02-11 18:21:00,
2013-02-11 10:31:00,29.0,23.0,-100.00,NNW,337,2.0,6.0,77,0.00,,,0.00,41.000000,,2013-02-11 18:31:00,
2013-02-11 10:53:00,33.0,25.0,-100.00,NNW,336,2.0,8.0,71,0.00,,,0.00,115.000000,,2013-02-11 18:53:00,
2013-02-11 11:02:00,33.0,25.0,-100.00,NNW,336,2.0,8.0,71,0.00,,,0.00,115.000000,,2013-02-11 19:02:00,
2013-02-11 11:11:00,33.0,25.0,-100.00,NNW,336,2.0,8.0,71,0.00,,,0.00,115.000000,,2013-02-11 19:11:00,
2013-02-11 11:21:00,33.0,25.0,-100.00,NNW,336,2.0,8.0,71,0.00,,,0.00,115.000000,,2013-02-11 19:21:00,
2013-02-11 11:31:00,33.0,25.0,-100.00,NNW,336,2.0,8.0,71,0.00,,,0.00,115.000000,,2013-02-11 19:31:00,
2013-02-11 12:01:00,38.0,25.0,-100.00,NNW,336,4.0,8.0,59,0.00,,,0.00,316.000000,,2013-02-11 20:01:00,
2013-02-11 12:11:00,38.0,25.0,-100.00,NNW,336,4.0,8.0,59,0.00,,,0.00,316.000000,,2013-02-11 20:11:00,
2013-02-11 12:21:00,38.0,25.0,-100.00,NNW,336,4.0,8.0,59,0.00,,,0.00,316.000000,,2013-02-11 20:21:00,
2013-02-11 12:31:00,38.0,25.0,-100.00,NNW,336,4.0,8.0,59,0.00,,,0.00,316.000000,,2013-02-11 20:31:00,
2013-02-11 12:52:00,42.0,26.0,-100.00,NNW,337,2.0,7.0,52,0.00,,,0.00,432.000000,,2013-02-11 20:52:00,
2013-02-11 13:02:00,42.0,26.0,-100.00,NNW,337,2.0,7.0,52,0.00,,,0.00,432.000000,,2013-02-11 21:02:00,
2013-02-11 13:11:00,42.0,26.0,-100.00,NNW,337,2.0,7.0,52,0.00,,,0.00,432.000000,,2013-02-11 21:11:00,
2013-02-11 13:21:00,42.0,26.0,-100.00,NNW,337,2.0,7.0,52,0.00,,,0.00,432.000000,,2013-02-11 21:21:00,
2013-02-11 13:31:00,42.0,26.0,-100.00,NNW,337,2.0,7.0,52,0.00,,,0.00,432.000000,,2013-02-11 21:31:00,
2013-02-11 13:52:00,40.0,26.0,-100.00,NNW,337,3.0,10.0,56,0.00,,,0.00,351.000000,,2013-02-11 21:52:00,
2013-02-11 14:01:00,40.0,26.0,-100.00,NNW,337,3.0,10.0,56,0.00,,,0.00,351.000000,,2013-02-11 22:01:00,
2013-02-11 14:11:00,40.0,26.0,-100.00,NNW,337,3.0,10.0,56,0.00,,,0.00,351.000000,,2013-02-11 22:11:00,
2013-02-11 14:21:00,40.0,26.0,-100.00,NNW,337,3.0,10.0,56,0.00,,,0.00,351.000000,,2013-02-11 22:21:00,
2013-02-11 14:31:00,40.0,26.0,-100.00,NNW,337,3.0,10.0,56,0.00,,,0.00,351.000000,,2013-02-11 22:31:00,
2013-02-11 14:52:00,38.0,27.0,-100.00,NNW,337,3.0,6.0,63,0.00,,,0.00,176.000000,,2013-02-11 22:52:00,
2013-02-11 15:01:00,38.0,27.0,-100.00,NNW,337,3.0,6.0,63,0.00,,,0.00,176.000000,,2013-02-11 23:01:00,
2013-02-11 15:11:00,38.0,27.0,-100.00,NNW,337,3.0,6.0,63,0.00,,,0.00,176.000000,,2013-02-11 23:11:00,
2013-02-11 15:21:00,38.0,27.0,-100.00,NNW,337,3.0,6.0,63,0.00,,,0.00,176.000000,,2013-02-11 23:21:00,
2013-02-11 15:31:00,38.0,27.0,-100.00,NNW,337,3.0,6.0,63,0.00,,,0.00,176.000000,,2013-02-11 23:31:00,
2013-02-11 15:52:00,36.0,26.0,-100.00,NNW,337,2.0,8.0,67,0.00,,,0.00,151.000000,,2013-02-11 23:52:00,
2013-02-11 16:01:00,36.0,26.0,-100.00,NNW,337,2.0,8.0,67,0.00,,,0.00,151.000000,,2013-02-12 00:01:00,
2013-02-11 16:11:00,36.0,26.0,-100.00,NNW,337,2.0,8.0,67,0.00,,,0.00,151.000000,,2013-02-12 00:11:00,
2013-02-11 16:21:00,36.0,26.0,-100.00,NNW,337,2.0,8.0,67,0.00,,,0.00,151.000000,,2013-02-12 00:21:00,
2013-02-11 16:31:00,36.0,26.0,-100.00,NNW,337,2.0,8.0,67,0.00,,,0.00,151.000000,,2013-02-12 00:31:00,
2013-02-11 16:52:00,35.0,27.0,-100.00,NNW,337,1.0,5.0,71,0.00,,,0.00,79.000000,,2013-02-12 00:52:00,
2013-02-11 17:01:00,35.0,27.0,-100.00,NNW,337,1.0,5.0,71,0.00,,,0.00,79.000000,,2013-02-12 01:01:00,
2013-02-11 17:11:00,35.0,27.0,-100.00,NNW,337,1.0,5.0,71,0.00,,,0.00,79.000000,,2013-02-12 01:11:00,
2013-02-11 17:21:00,35.0,27.0,-100.00,NNW,337,1.0,5.0,71,0.00,,,0.00,79.000000,,2013-02-12 01:21:00,
2013-02-11 17:31:00,35.0,27.0,-100.00,NNW,337,1.0,5.0,71,0.00,,,0.00,79.000000,,2013-02-12 01:31:00,
2013-02-11 17:52:00,31.0,25.0,-100.00,NNW,337,1.0,5.0,78,0.00,,,-99.99,22.000000,,2013-02-12 01:52:00,
2013-02-11 18:01:00,31.0,25.0,-100.00,NNW,337,1.0,5.0,78,0.00,,,-99.99,22.000000,,2013-02-12 02:01:00,
2013-02-11 18:11:00,31.0,25.0,-100.00,NNW,337,1.0,5.0,78,0.00,,,-99.99,22.000000,,2013-02-12 02:11:00,
2013-02-11 18:21:00,31.0,25.0,-100.00,NNW,337,1.0,5.0,78,0.00,,,-99.99,22.000000,,2013-02-12 02:21:00,
2013-02-11 18:31:00,31.0,25.0,-100.00,NNW,337,1.0,5.0,78,0.00,,,-99.99,22.000000,,2013-02-12 02:31:00,
2013-02-11 18:52:00,29.0,25.0,-100.00,NNW,337,2.0,3.0,86,0.00,,,0.00,0.000000,,2013-02-12 02:52:00,
2013-02-11 19:02:00,29.0,25.0,-100.00,NNW,337,2.0,3.0,86,0.00,,,0.00,0.000000,,2013-02-12 03:02:00,
2013-02-11 19:52:00,29.0,25.0,-100.00,NNW,336,1.0,3.0,83,0.00,,,0.00,0.000000,,2013-02-12 03:52:00,
2013-02-11 20:01:00,29.0,25.0,-100.00,NNW,336,1.0,3.0,83,0.00,,,0.00,0.000000,,2013-02-12 04:01:00,
2013-02-11 20:11:00,29.0,25.0,-100.00,NNW,336,1.0,3.0,83,0.00,,,0.00,0.000000,,2013-02-12 04:11:00,
2013-02-11 20:21:00,29.0,25.0,-100.00,NNW,336,1.0,3.0,83,0.00,,,0.00,0.000000,,2013-02-12 04:21:00,
2013-02-11 20:31:00,29.0,25.0,-100.00,NNW,336,1.0,3.0,83,0.00,,,0.00,0.000000,,2013-02-12 04:31:00,
2013-02-11 20:52:00,27.0,24.0,-100.00,NNW,337,0.0,4.0,87,-99.99,,,-99.99,0.000000,,2013-02-12 04:52:00,
2013-02-11 21:01:00,27.0,24.0,-100.00,NNW,337,0.0,4.0,87,-99.99,,,-99.99,0.000000,,2013-02-12 05:01:00,
2013-02-11 21:52:00,30.0,25.0,-100.00,NNW,336,3.0,8.0,80,-99.99,,,0.00,0.000000,,2013-02-12 05:52:00,
2013-02-11 22:01:00,30.0,25.0,-100.00,NNW,336,3.0,8.0,80,-99.99,,,0.00,0.000000,,2013-02-12 06:01:00,
2013-02-11 22:12:00,30.0,25.0,-100.00,NNW,336,3.0,8.0,80,-99.99,,,0.00,0.000000,,2013-02-12 06:12:00,
2013-02-11 22:21:00,30.0,25.0,-100.00,NNW,336,3.0,8.0,80,-99.99,,,0.00,0.000000,,2013-02-12 06:21:00,
2013-02-11 22:31:00,30.0,25.0,-100.00,NNW,336,3.0,8.0,80,-99.99,,,0.00,0.000000,,2013-02-12 06:31:00,
2013-02-11 22:52:00,29.0,25.0,-100.00,NNW,336,1.0,4.0,83,0.00,,,0.00,0.000000,,2013-02-12 06:52:00,
2013-02-11 23:01:00,29.0,25.0,-100.00,NNW,336,1.0,4.0,83,0.00,,,0.00,0.000000,,2013-02-12 07:01:00,
2013-02-11 23:11:00,29.0,25.0,-100.00,NNW,336,1.0,4.0,83,0.00,,,0.00,0.000000,,2013-02-12 07:11:00,
2013-02-11 23:21:00,29.0,25.0,-100.00,NNW,336,1.0,4.0,83,0.00,,,0.00,0.000000,,2013-02-12 07:21:00,
2013-02-11 23:31:00,29.0,25.0,-100.00,NNW,336,1.0,4.0,83,0.00,,,0.00,0.000000,,2013-02-12 07:31:00,
2013-02-11 23:52:00,29.0,24.0,-100.00,NNW,336,1.0,3.0,81,0.00,,,0.00,0.000000,,2013-02-12 07:52:00,